User: anonymous   Login
Location: Montauk Point State Park
(41.0718°N, 71.8593°W)
Time: 00:22:43
(UTC-04:00)
Language:

Cosmos 1844 - Orbit

View from above orbital plane
View from above orbital plane
View from above satellite
View from above satellite

Ground track
Ground track

The orbit data is extracted from the following two-line orbital elements,

1 17973U 87041A   15184.96006220 -.00000296  00000-0 -13015-3 0  9993
2 17973 070.8982 338.7867 0028835 119.4374 023.5418 14.13996545452180
Epoch (UTC): 03 July 2015 23:02:29
Eccentricity: 0.0028835
inclination: 70.8982°
perigee height: 825 km
apogee height: 866 km
right ascension of ascending node: 338.7867°
argument of perigee: 119.4374°
revolutions per day: 14.13996545
mean anomaly at epoch: 23.5418°
orbit number at epoch: 45218

The dashed part of the orbit path shows where the satellite is in the earth's shadow,  

DLR